Probability
0 0 0 0 0 0 0 0 0 0 0 0 0 0 0 0 0 0 0 0 0 0 1 2 2 2 2 2 2 2 2 1 1 1 0 0 0 0 1 2 1 0 0
0 0 0 0 0 0 0 0 0 0 0 0 0 0 0 0 0 0 0 0 0 0 0 1 1 1 1 1 1 1 1 1 2 2 1 0 0 0 1 1 1 0 0
0 0 0 0 0 0 0 0 0 0 0 0 0 0 0 0 0 0 0 0 0 0 0 0 0 0 0 0 0 0 0 1 1 2 1 0 0 0 0 0 0 0 0
0 0 0 0 0 0 0 0 0 1 0 0 0 0 0 0 0 0 0 0 0 0 0 0 0 0 0 0 0 0 0 0 0 1 1 0 0 0 0 0 0 0 0
0 0 0 0 0 0 0 0 0 0 0 0 0 0 0 0 0 0 0 0 0 0 0 0 0 0 0 0 0 0 0 0 0 0 0 0 0 0 0 0 0 0 0
0 0 0 0 0 0 0 0 0 0 0 0 0 0 0 0 0 0 0 0 0 0 0 0 0 0 0 0 0 0 0 0 0 0 0 0 0 0 0 0 0 0 0
0 0 0 0 0 0 0 0 0 0 0 0 0 0 0 0 0 0 0 0 0 0 0 0 0 0 0 0 0 0 0 0 0 0 0 0 0 0 0 0 0 0 0
0 0 0 0 0 0 0 0 0 0 0 0 0 0 0 0 0 0 0 0 0 0 0 0 0 0 0 0 0 0 0 0 0 0 0 0 0 0 0 0 0 0 0
0 0 0 0 0 0 0 0 0 0 0 0 0 0 0 0 0 0 0 0 0 0 0 0 0 0 0 0 0 0 0 0 0 0 0 0 0 0 0 0 0 0 0
0 0 0 0 0 0 0 0 0 0 0 0 0 0 0 0 0 0 0 0 0 0 0 0 0 0 0 0 0 0 0 0 0 0 0 0 0 0 0 0 0 0 0
0 0 0 0 0 0 0 0 0 0 0 0 0 0 0 0 0 0 0 0 0 0 0 0 0 0 0 0 0 0 0 0 0 0 0 0 0 0 0 0 0 0 0
0 0 0 0 0 0 0 0 0 0 0 0 0 0 0 0 0 0 0 0 0 0 0 0 0 0 0 0 0 0 0 0 0 0 0 0 0 0 0 0 0 0 0
0 0 0 0 0 0 0 0 0 0 0 0 0 0 0 0 0 0 0 0 0 0 0 0 0 0 0 0 0 0 0 0 0 0 0 0 0 0 0 0 0 0 0
0 0 0 0 0 0 0 0 0 0 0 0 0 0 0 0 0 0 0 0 0 0 0 0 0 0 0 0 0 0 0 0 0 0 0 0 0 0 0 0 0 0 0
0 0 0 0 0 0 0 0 0 0 0 0 0 0 0 0 0 0 0 0 0 0 0 0 0 0 0 0 0 0 0 0 0 0 0 0 0 0 0 0 0 0 0
0 0 0 0 0 0 0 0 0 0 0 0 0 0 0 0 0 0 0 0 0 0 0 0 0 0 0 0 0 0 0 0 0 0 0 0 0 0 0 0 0 0 0
0 0 0 0 0 0 0 0 0 0 0 0 0 0 0 0 0 0 0 0 0 0 0 0 0 0 0 0 0 0 0 0 0 0 0 0 0 0 0 0 0 0 0
0 0 0 0 0 0 0 0 0 0 0 0 0 0 0 0 0 0 0 0 0 0 0 0 0 0 0 0 0 0 0 0 0 0 0 0 0 0 0 0 0 0 0
0 0 0 0 0 0 0 0 0 0 0 0 0 0 0 0 0 0 0 0 0 0 0 0 0 0 0 0 0 0 0 0 0 0 0 0 0 0 0 0 0 0 0
0 0 0 0 0 0 0 0 0 0 0 0 0 0 0 0 0 0 0 0 0 0 0 0 0 0 0 0 0 0 0 0 0 0 0 0 0 0 0 0 0 0 0
0 0 0 0 0 0 0 0 0 0 0 0 0 0 0 0 0 0 0 0 0 0 0 0 0 0 0 0 0 0 0 0 0 0 0 0 0 0 0 0 0 0 0
0 0 0 0 0 0 0 0 0 0 0 0 0 0 0 0 0 0 0 0 0 0 0 0 0 0 0 0 0 0 0 0 0 0 0 0 0 0 0 0 0 0 0
0 0 0 0 0 0 0 0 0 0 0 0 0 0 0 0 0 0 0 0 0 0 0 0 0 0 0 0 0 0 0 0 0 0 0 0 0 0 0 0 0 0 0
0 0 0 0 0 0 0 0 0 0 0 0 0 0 0 0 0 0 0 0 0 0 0 0 0 0 0 0 0 0 0 0 0 0 0 0 0 0 0 0 0 0 0
0 0 0 0 0 0 0 0 0 0 0 0 0 0 0 0 0 0 0 0 0 0 0 0 0 0 0 0 0 0 0 0 0 0 0 0 0 0 0 0 0 0 0
0 0 0 0 0 0 0 0 0 0 0 0 0 0 0 0 0 0 0 0 0 0 0 0 0 0 0 0 0 0 0 0 0 0 0 0 0 0 0 0 0 0 0
Wind_Speed
3 4 4 5 5 5 5 5 5 5 4 3 2 2 2 2 2 3 3 3 3 3 2 1 2 2 1 1 2 1 1 1 1 1 1 1 2 2 1 1 1 1 1
4 4 4 4 5 5 5 5 5 5 4 3 2 1 1 1 2 2 2 3 3 3 2 2 2 2 2 2 1 1 1 1 1 1 1 1 2 1 1 1 1 2 2
5 5 5 5 4 4 4 4 5 4 4 3 2 2 2 1 1 1 2 2 3 3 3 2 1 1 1 1 2 1 1 1 1 1 2 2 2 1 2 2 2 2 2
5 5 5 5 4 4 4 4 4 4 4 3 3 3 1 1 0 1 1 2 2 2 2 2 2 1 1 1 2 2 2 2 1 1 2 2 2 2 2 2 2 2 3
5 5 5 5 4 4 3 3 4 4 3 3 3 3 2 1 0 0 0 1 1 2 2 2 2 2 1 2 2 2 2 2 3 2 2 2 2 4 4 4 3 3 3
4 4 4 4 4 4 3 3 3 3 3 3 3 3 2 2 1 1 1 1 1 1 2 2 2 2 2 2 2 2 3 3 3 3 3 3 3 3 3 4 4 4 3
4 4 5 5 4 4 4 4 3 3 2 2 2 3 3 3 3 2 2 2 2 2 2 2 2 2 2 3 3 3 3 3 4 4 3 3 4 4 4 4 4 4 4
4 4 5 5 5 5 4 4 4 3 3 3 2 2 2 2 2 2 2 2 2 3 3 3 3 3 3 3 3 3 3 4 4 5 5 4 4 4 4 4 4 4 4
3 3 4 4 4 5 5 4 4 4 3 3 2 2 2 2 2 3 3 3 3 3 4 4 4 4 4 4 4 3 4 4 4 5 5 5 4 4 4 5 5 5 6
2 3 3 4 4 4 4 4 4 4 3 3 3 2 3 3 3 3 3 4 4 4 4 4 5 5 4 4 4 4 4 5 5 4 5 5 4 4 4 4 5 6 6
2 2 2 3 3 3 3 4 4 3 3 3 3 3 3 3 3 3 4 4 4 4 5 5 5 5 5 5 5 5 5 6 6 5 6 6 6 5 4 4 5 5 6
2 2 2 2 2 3 3 4 4 3 3 3 3 3 3 3 4 4 4 4 5 5 5 5 6 6 6 6 6 6 6 7 7 7 7 7 6 7 5 5 6 6 6
2 2 2 2 3 3 3 3 3 3 3 3 3 3 4 4 5 5 4 5 5 5 5 5 6 6 6 7 7 7 7 7 7 8 8 8 8 7 6 6 6 6 6
3 3 3 3 3 3 3 3 3 3 3 3 4 4 4 5 5 5 5 5 5 6 6 6 6 7 7 7 7 7 7 8 8 8 8 8 8 8 8 7 7 7 7
3 4 4 3 3 3 3 3 3 3 3 3 4 5 4 5 5 5 6 6 6 6 6 6 7 7 6 7 7 7 8 8 8 8 8 9 9 10 9 7 7 7 7
4 4 4 4 4 3 3 3 3 3 3 4 5 5 5 5 5 6 6 6 6 6 7 7 7 7 6 7 9 9 8 8 9 9 9 9 9 10 11 12 12 11 9
4 4 4 4 4 4 4 4 3 3 4 4 5 5 5 6 6 6 6 7 6 7 7 8 8 8 8 9 10 11 10 9 9 9 9 8 8 10 9 10 12 12 13
4 4 3 4 4 3 3 3 3 4 4 5 5 5 5 6 6 6 7 7 6 7 7 8 8 9 9 10 11 11 10 10 10 10 10 10 10 9 9 9 10 10 11
4 4 3 4 3 3 3 3 3 4 4 5 5 5 6 7 7 7 7 7 7 7 8 8 9 9 9 11 11 11 8 8 10 10 10 10 10 11 11 10 10 10 10
3 3 2 3 3 3 2 3 4 4 5 5 6 6 6 7 8 8 7 7 7 8 8 8 9 10 10 11 12 11 7 8 8 8 9 11 12 12 12 10 10 11 10
3 2 2 3 3 3 2 3 4 5 5 5 5 6 6 7 7 7 7 7 7 7 8 9 9 9 10 11 13 13 8 8 8 8 8 8 11 13 13 12 10 11 10
3 3 2 3 3 3 3 4 5 4 4 4 5 6 6 6 6 7 7 7 7 8 8 8 8 7 8 10 11 14 13 11 9 9 8 8 11 12 13 11 11 12 10
3 3 2 3 3 3 3 4 5 4 4 4 5 5 6 6 6 6 6 6 6 6 6 6 7 6 6 7 12 13 14 14 10 9 11 12 12 12 11 13 12 10 8
3 3 2 3 4 4 4 4 5 4 4 5 5 5 5 5 5 5 5 5 6 6 6 7 7 6 6 6 6 7 8 11 10 9 10 13 14 12 11 10 8 8 7
3 2 2 3 4 4 4 4 4 4 4 5 5 5 5 5 5 5 5 6 7 7 8 7 7 7 7 8 11 9 7 7 7 7 7 7 7 7 7 7 7 7 6
3 3 3 3 4 4 4 5 4 4 4 4 4 4 4 4 4 5 5 7 9 11 13 12 11 9 11 13 13 14 14 13 11 8 7 7 7 8 7 7 7 6 6
Wind_Direction
182 167 163 158 151 145 144 140 137 131 127 128 130 122 97 71 56 45 36 31 28 20 15 11 11 1 352 352 352 359 9 8 1 327 327 284 251 230 242 268 265 265 280
164 157 155 153 158 154 150 146 145 139 137 130 122 106 107 86 61 45 38 27 19 11 9 18 14 359 352 356 357 2 339 352 357 323 294 280 229 207 265 260 272 280 283
179 165 164 163 159 157 160 156 149 147 143 132 119 111 112 117 94 40 30 20 9 5 0 354 353 350 341 343 341 323 323 299 304 313 294 280 278 319 236 242 244 277 289
183 171 171 171 171 167 162 157 154 153 148 144 148 150 155 141 29 0 7 2 0 356 348 343 336 322 317 309 310 318 301 275 254 275 295 308 303 273 276 250 258 281 287
188 182 180 179 174 166 164 160 154 157 155 160 166 172 174 160 131 121 344 341 350 347 339 332 325 329 311 302 295 293 295 279 266 266 275 281 284 262 257 266 274 280 274
193 189 179 174 171 166 166 164 157 154 167 172 179 188 189 188 189 232 280 298 309 316 324 316 309 305 304 297 285 279 278 284 277 265 260 261 260 265 262 264 277 283 284
194 189 182 179 177 177 176 177 174 171 175 184 195 204 207 207 211 229 251 274 284 287 296 300 294 293 290 286 285 273 273 269 271 265 260 260 263 267 266 261 267 276 288
198 200 198 192 189 188 187 190 192 192 192 201 212 218 225 228 233 238 250 257 268 276 282 282 283 283 281 278 275 271 264 259 258 268 262 256 261 258 255 259 261 266 267
205 212 208 203 198 197 199 203 204 205 207 211 216 222 228 239 249 248 250 255 262 269 269 269 270 270 269 270 269 265 263 259 257 262 266 258 255 255 256 257 254 256 260
218 221 221 219 209 205 207 209 214 216 215 215 220 228 232 243 250 255 258 259 260 263 266 265 266 266 265 263 261 262 262 260 257 258 261 263 258 253 253 252 252 253 254
235 231 234 224 211 203 202 208 214 217 220 223 229 234 236 241 249 250 257 265 267 262 260 261 262 263 262 260 258 257 257 258 258 255 256 261 261 256 253 251 250 250 249
250 247 245 231 216 209 207 212 216 217 225 233 235 240 244 247 252 256 258 261 264 264 262 259 257 257 256 254 252 254 254 254 256 254 253 256 256 253 252 251 250 251 250
258 253 246 241 234 226 221 221 224 224 228 232 238 242 247 251 256 260 259 256 258 261 260 259 256 256 255 253 252 252 253 254 255 255 252 253 252 252 251 250 250 251 252
256 257 254 248 245 241 234 228 232 232 232 233 239 246 251 254 260 262 259 255 254 255 257 258 259 258 255 254 253 254 255 256 256 256 256 254 252 251 251 250 250 250 250
257 260 264 260 250 249 248 241 239 239 239 241 247 254 259 259 260 260 259 256 254 255 256 257 257 256 254 248 250 253 254 255 257 256 255 254 256 258 255 255 252 250 249
265 270 272 264 256 253 253 251 249 249 248 248 253 259 260 260 260 260 260 257 254 254 253 251 253 254 253 255 254 257 256 255 255 256 256 255 252 254 254 258 261 257 251
266 270 274 268 264 259 254 251 253 256 253 256 260 261 260 260 260 261 258 257 256 254 253 253 252 254 255 255 256 255 257 256 255 255 256 255 254 254 249 251 254 253 252
265 270 273 275 276 268 260 258 255 252 254 257 260 262 262 262 263 261 257 257 256 254 254 254 254 256 255 255 257 260 257 256 254 254 255 255 256 253 252 253 254 252 249
278 277 277 279 279 269 259 256 257 257 258 260 262 262 261 261 260 257 257 258 257 255 254 256 254 255 256 253 255 258 258 254 255 254 254 255 254 255 257 257 256 256 256
297 295 293 288 279 275 260 253 258 260 261 265 267 266 262 259 258 258 259 261 258 255 257 257 255 255 257 254 255 255 253 255 256 255 253 252 254 258 255 254 255 256 259
306 304 294 284 283 281 261 260 264 266 272 274 271 268 264 261 261 260 259 259 258 258 257 258 256 255 256 255 252 252 252 253 256 257 254 252 252 258 258 257 257 262 269
309 302 295 294 295 284 262 267 273 280 281 276 272 270 268 265 261 258 259 257 254 254 255 256 258 256 256 256 253 253 255 258 257 258 258 259 259 260 260 258 260 266 270
299 300 291 295 296 288 270 270 281 286 284 281 277 275 272 268 261 257 257 256 251 252 254 253 256 259 260 260 258 257 258 258 257 258 262 266 264 263 258 256 259 259 256
299 299 293 287 291 294 290 281 284 287 282 279 280 277 274 270 265 261 256 254 252 252 254 254 256 260 261 259 257 256 257 256 256 260 262 263 260 258 259 258 252 247 250
305 296 279 282 290 297 298 295 290 283 281 280 278 280 277 275 272 267 263 262 257 255 257 258 258 258 260 262 268 269 263 259 257 264 259 257 254 250 249 250 252 250 247
302 297 293 291 295 298 299 299 295 285 281 284 284 284 282 278 275 276 278 271 269 270 262 261 263 263 266 274 272 271 273 271 267 262 254 254 254 254 253 252 252 252 250